This is the latest recevied weather packets stored in our database for station/object W7TTE. If no packets are shown the sender has not sent any weather packets the latest 10 day(s).
| Time | Temp. | Humidity | Pressure | Rain* | Wind** | Luminosity | Snow |
|---|---|---|---|---|---|---|---|
| 1777839691 | 35.56° C | 16% | 1011.2 hPa | 0 mm | - | 767 W/m² | - |
| 1777839388 | 35.56° C | 16% | 1011.1 hPa | 0 mm | - | 769 W/m² | - |
| 1777839085 | 35° C | 16% | 1011 hPa | 0 mm | - | 775 W/m² | - |
| 1777838781 | 35° C | 16% | 1011.1 hPa | 0 mm | - | 780 W/m² | - |
| 1777838478 | 35° C | 17% | 1011.5 hPa | 0 mm | - | 785 W/m² | - |
| 1777838175 | 35.56° C | 16% | 1011.5 hPa | 0 mm | - | 785 W/m² | - |
| 1777837872 | 35.56° C | 17% | 1011.4 hPa | 0 mm | - | 785 W/m² | - |
| 1777837569 | 35.56° C | 17% | 1011.6 hPa | 0 mm | - | 786 W/m² | - |
| 1777837264 | 35° C | 17% | 1011.7 hPa | 0 mm | - | 791 W/m² | - |
| 1777836961 | 35° C | 17% | 1011.8 hPa | 0 mm | - | 792 W/m² | - |
| 1777836656 | 35° C | 17% | 1011.6 hPa | 0 mm | - | 791 W/m² | - |
| 1777836352 | 34.44° C | 17% | 1011.7 hPa | 0 mm | - | 792 W/m² | - |
| 1777836048 | 34.44° C | 17% | 1011.8 hPa | 0 mm | - | 790 W/m² | - |
| 1777835745 | 33.89° C | 17% | 1012.1 hPa | 0 mm | - | 792 W/m² | - |
| 1777835442 | 33.89° C | 17% | 1012.3 hPa | 0 mm | - | 789 W/m² | - |
| 1777835139 | 33.89° C | 18% | 1012 hPa | 0 mm | - | 789 W/m² | - |
| 1777834836 | 33.89° C | 17% | 1012.3 hPa | 0 mm | - | 788 W/m² | - |
| 1777834533 | 33.33° C | 18% | 1012.3 hPa | 0 mm | - | 785 W/m² | - |
| 1777834232 | 33.89° C | 18% | 1012.6 hPa | 0 mm | - | 785 W/m² | - |
| 1777833929 | 33.89° C | 17% | 1012.6 hPa | 0 mm | - | 785 W/m² | - |
| 1777833625 | 33.33° C | 18% | 1012.7 hPa | 0 mm | - | 784 W/m² | - |
| 1777833322 | 33.89° C | 17% | 1012.9 hPa | 0 mm | - | 779 W/m² | - |
| 1777833019 | 33.33° C | 19% | 1012.8 hPa | 0 mm | - | 775 W/m² | - |
| 1777832718 | 33.33° C | 18% | 1012.8 hPa | 0 mm | - | 772 W/m² | - |
| 1777832415 | 32.78° C | 18% | 1013.1 hPa | 0 mm | - | 770 W/m² | - |
* Rain latest hour (hover to see other rain measurements)
** Current wind speed in m/s (hover to see current wind gust speed)